WXM80 ListenWXM80 Stop

You find our weather info also at:

UK Metoffice

WeatherCloud

Weather Underground

Northeastern Weather Network

AWEKAS

Citizen Weather Observer Program (CWOP)

HAMweather, WeatherForYou, PWS Weather


Weather Underground History page Text

Daily Summary for November 26, 2017 Units:  Both    English   Metric
« Previous Day
Next Day »
Daily Weekly Monthly Yearly Custom
  High: Low: Average:
Temperature: 51.2 °F /  10.7 °C 38.3 °F /  3.5 °C 45.5 °F /  7.5 °C
Dew Point: 42.0 °F /  5.6 °C 28.3 °F /  -2.1 °C 33.3 °F /  0.7 °C
Humidity: 71 % 51 % 62 %
Wind Speed: 11.8 mph /  19 km/h - 4.8 mph /  7.7 km/h
Wind Gust: 19.6 mph /  31.5 km/h - -
Wind:- - West
Pressure: 30.01 in /  1016.1 hPa 29.74 in /  1007 hPa -
Precipitation: 0.00 in /  0 mm    
Historical Graphs
 
 
Tabular Data for November 26, 2017
Time Temperature Dew Point Pressure Wind Wind Speed Wind Gust Humidity Rainfall Rate (Hourly)
00:01 50.6 °F /  10.3 °C 40.0 °F /  4.4 °C 29.74 in /  1007 hPa West 3.2 mph /  5.1 km/h 4.6 mph /  7.4 km/h 67 % 0.00 in /  0 mm
00:06 50.6 °F /  10.3 °C 40.0 °F /  4.4 °C 29.74 in /  1007 hPa SW 1.7 mph /  2.7 km/h 4.6 mph /  7.4 km/h 67 % 0.00 in /  0 mm
00:11 50.7 °F /  10.4 °C 40.1 °F /  4.5 °C 29.74 in /  1007 hPa West 2.8 mph /  4.5 km/h 5.8 mph /  9.3 km/h 67 % 0.00 in /  0 mm
00:17 50.7 °F /  10.4 °C 40.1 °F /  4.5 °C 29.74 in /  1007 hPa WNW 3.4 mph /  5.5 km/h 5.0 mph /  8 km/h 67 % 0.00 in /  0 mm
00:22 50.7 °F /  10.4 °C 40.1 °F /  4.5 °C 29.74 in /  1007 hPa WSW 4.5 mph /  7.2 km/h 9.2 mph /  14.8 km/h 67 % 0.00 in /  0 mm
00:27 50.8 °F /  10.4 °C 40.2 °F /  4.6 °C 29.75 in /  1007.3 hPa West 4.3 mph /  6.9 km/h 7.0 mph /  11.3 km/h 67 % 0.00 in /  0 mm
00:32 50.8 °F /  10.4 °C 40.2 °F /  4.6 °C 29.75 in /  1007.3 hPa West 3.9 mph /  6.3 km/h 8.1 mph /  13 km/h 67 % 0.00 in /  0 mm
00:37 50.8 °F /  10.4 °C 39.8 °F /  4.3 °C 29.75 in /  1007.3 hPa WSW 3.3 mph /  5.3 km/h 9.2 mph /  14.8 km/h 66 % 0.00 in /  0 mm
00:42 50.9 °F /  10.5 °C 40.3 °F /  4.6 °C 29.75 in /  1007.3 hPa WSW 6.0 mph /  9.7 km/h 10.4 mph /  16.7 km/h 67 % 0.00 in /  0 mm
00:47 51.0 °F /  10.6 °C 40.0 °F /  4.4 °C 29.75 in /  1007.3 hPa WSW 3.6 mph /  5.8 km/h 5.8 mph /  9.3 km/h 66 % 0.00 in /  0 mm
00:52 51.0 °F /  10.6 °C 40.0 °F /  4.4 °C 29.75 in /  1007.3 hPa West 0.9 mph /  1.4 km/h 5.0 mph /  8 km/h 66 % 0.00 in /  0 mm
00:57 51.0 °F /  10.6 °C 40.0 °F /  4.4 °C 29.75 in /  1007.3 hPa WNW 4.5 mph /  7.2 km/h 8.0 mph /  12.9 km/h 66 % 0.00 in /  0 mm
01:02 51.1 °F /  10.6 °C 40.1 °F /  4.5 °C 29.75 in /  1007.3 hPa SW 3.9 mph /  6.3 km/h 10.4 mph /  16.7 km/h 66 % 0.00 in /  0 mm
01:07 51.2 °F /  10.7 °C 40.2 °F /  4.6 °C 29.76 in /  1007.7 hPa West 5.0 mph /  8 km/h 10.4 mph /  16.7 km/h 66 % 0.00 in /  0 mm
01:12 51.2 °F /  10.7 °C 40.2 °F /  4.6 °C 29.76 in /  1007.7 hPa SW 4.7 mph /  7.6 km/h 7.0 mph /  11.3 km/h 66 % 0.00 in /  0 mm
01:17 51.2 °F /  10.7 °C 40.2 °F /  4.6 °C 29.76 in /  1007.7 hPa WSW 5.7 mph /  9.2 km/h 8.1 mph /  13 km/h 66 % 0.00 in /  0 mm
01:22 51.2 °F /  10.7 °C 40.2 °F /  4.6 °C 29.76 in /  1007.7 hPa West 4.2 mph /  6.8 km/h 9.2 mph /  14.8 km/h 66 % 0.00 in /  0 mm
01:27 51.2 °F /  10.7 °C 40.6 °F /  4.8 °C 29.77 in /  1008 hPa WSW 2.5 mph /  4 km/h 9.2 mph /  14.8 km/h 67 % 0.00 in /  0 mm
01:32 51.2 °F /  10.7 °C 41.0 °F /  5 °C 29.77 in /  1008 hPa West 1.3 mph /  2.1 km/h 4.6 mph /  7.4 km/h 68 % 0.00 in /  0 mm
01:37 51.2 °F /  10.7 °C 41.4 °F /  5.2 °C 29.78 in /  1008.4 hPa West 5.5 mph /  8.9 km/h 7.0 mph /  11.3 km/h 69 % 0.00 in /  0 mm
01:42 51.1 °F /  10.6 °C 41.7 °F /  5.4 °C 29.78 in /  1008.4 hPa NW 6.2 mph /  10 km/h 12.0 mph /  19.3 km/h 70 % 0.00 in /  0 mm
01:47 51.2 °F /  10.7 °C 41.7 °F /  5.4 °C 29.78 in /  1008.4 hPa NW 6.6 mph /  10.6 km/h 11.5 mph /  18.5 km/h 70 % 0.00 in /  0 mm
01:52 51.2 °F /  10.7 °C 41.7 °F /  5.4 °C 29.78 in /  1008.4 hPa WNW 4.7 mph /  7.6 km/h 10.0 mph /  16.1 km/h 70 % 0.00 in /  0 mm
01:57 51.1 °F /  10.6 °C 42.0 °F /  5.6 °C 29.78 in /  1008.4 hPa WNW 4.4 mph /  7.1 km/h 10.0 mph /  16.1 km/h 71 % 0.00 in /  0 mm
02:02 51.0 °F /  10.6 °C 41.9 °F /  5.5 °C 29.79 in /  1008.7 hPa West 4.5 mph /  7.2 km/h 9.2 mph /  14.8 km/h 71 % 0.00 in /  0 mm
02:07 51.0 °F /  10.6 °C 41.9 °F /  5.5 °C 29.79 in /  1008.7 hPa West 6.4 mph /  10.3 km/h 9.2 mph /  14.8 km/h 71 % 0.00 in /  0 mm
02:12 50.9 °F /  10.5 °C 41.8 °F /  5.4 °C 29.79 in /  1008.7 hPa NNW 6.4 mph /  10.3 km/h 11.0 mph /  17.7 km/h 71 % 0.00 in /  0 mm
02:17 50.8 °F /  10.4 °C 41.7 °F /  5.4 °C 29.79 in /  1008.7 hPa WNW 6.4 mph /  10.3 km/h 12.7 mph /  20.4 km/h 71 % 0.00 in /  0 mm
02:22 50.7 °F /  10.4 °C 41.6 °F /  5.3 °C 29.79 in /  1008.7 hPa WNW 7.8 mph /  12.6 km/h 11.5 mph /  18.5 km/h 71 % 0.00 in /  0 mm
02:27 50.7 °F /  10.4 °C 40.9 °F /  4.9 °C 29.79 in /  1008.7 hPa WNW 3.8 mph /  6.1 km/h 10.0 mph /  16.1 km/h 69 % 0.00 in /  0 mm
02:32 50.7 °F /  10.4 °C 40.5 °F /  4.7 °C 29.79 in /  1008.7 hPa WNW 1.5 mph /  2.4 km/h 3.5 mph /  5.6 km/h 68 % 0.00 in /  0 mm
02:37 50.6 °F /  10.3 °C 40.8 °F /  4.9 °C 29.79 in /  1008.7 hPa WNW 2.7 mph /  4.3 km/h 6.9 mph /  11.1 km/h 69 % 0.00 in /  0 mm
02:42 50.6 °F /  10.3 °C 40.0 °F /  4.4 °C 29.79 in /  1008.7 hPa West 5.0 mph /  8 km/h 9.2 mph /  14.8 km/h 67 % 0.00 in /  0 mm
02:47 50.6 °F /  10.3 °C 40.0 °F /  4.4 °C 29.79 in /  1008.7 hPa West 5.2 mph /  8.4 km/h 13.0 mph /  20.9 km/h 67 % 0.00 in /  0 mm
02:48 50.5 °F /  10.3 °C 39.6 °F /  4.2 °C 29.79 in /  1008.7 hPa WNW 3.9 mph /  6.3 km/h 12.7 mph /  20.4 km/h 66 % 0.00 in /  0 mm
02:54 50.5 °F /  10.3 °C 39.6 °F /  4.2 °C 29.79 in /  1008.7 hPa West 7.9 mph /  12.7 km/h 15.0 mph /  24.1 km/h 66 % 0.00 in /  0 mm
02:59 50.5 °F /  10.3 °C 39.6 °F /  4.2 °C 29.79 in /  1008.7 hPa WNW 2.9 mph /  4.7 km/h 4.6 mph /  7.4 km/h 66 % 0.00 in /  0 mm
03:04 50.5 °F /  10.3 °C 39.6 °F /  4.2 °C 29.79 in /  1008.7 hPa WNW 3.0 mph /  4.8 km/h 11.5 mph /  18.5 km/h 66 % 0.00 in /  0 mm
03:09 50.4 °F /  10.2 °C 39.5 °F /  4.2 °C 29.79 in /  1008.7 hPa WNW 3.6 mph /  5.8 km/h 9.0 mph /  14.5 km/h 66 % 0.00 in /  0 mm
03:14 50.4 °F /  10.2 °C 39.5 °F /  4.2 °C 29.79 in /  1008.7 hPa West 0.7 mph /  1.1 km/h 3.5 mph /  5.6 km/h 66 % 0.00 in /  0 mm
03:19 50.3 °F /  10.2 °C 39.4 °F /  4.1 °C 29.80 in /  1009 hPa West 2.2 mph /  3.5 km/h 3.5 mph /  5.6 km/h 66 % 0.00 in /  0 mm
03:29 50.1 °F /  10.1 °C 39.2 °F /  4 °C 29.81 in /  1009.4 hPa West 1.4 mph /  2.3 km/h 4.6 mph /  7.4 km/h 66 % 0.00 in /  0 mm
03:34 50.0 °F /  10 °C 39.1 °F /  3.9 °C 29.81 in /  1009.4 hPa NW 3.1 mph /  5 km/h 9.0 mph /  14.5 km/h 66 % 0.00 in /  0 mm
03:39 49.8 °F /  9.9 °C 38.5 °F /  3.6 °C 29.81 in /  1009.4 hPa NW 2.7 mph /  4.3 km/h 9.2 mph /  14.8 km/h 65 % 0.00 in /  0 mm
03:41 49.7 °F /  9.8 °C 38.4 °F /  3.6 °C 29.81 in /  1009.4 hPa WNW 2.6 mph /  4.2 km/h 8.1 mph /  13 km/h 65 % 0.00 in /  0 mm
03:46 49.7 °F /  9.8 °C 38.4 °F /  3.6 °C 29.81 in /  1009.4 hPa WNW 4.1 mph /  6.6 km/h 10.4 mph /  16.7 km/h 65 % 0.00 in /  0 mm
03:56 49.5 °F /  9.7 °C 38.2 °F /  3.4 °C 29.81 in /  1009.4 hPa WNW 4.1 mph /  6.6 km/h 8.1 mph /  13 km/h 65 % 0.00 in /  0 mm
04:01 49.5 °F /  9.7 °C 38.2 °F /  3.4 °C 29.81 in /  1009.4 hPa West 5.1 mph /  8.2 km/h 8.1 mph /  13 km/h 65 % 0.00 in /  0 mm
04:06 49.4 °F /  9.7 °C 37.7 °F /  3.2 °C 29.81 in /  1009.4 hPa West 6.9 mph /  11.1 km/h 10.4 mph /  16.7 km/h 64 % 0.00 in /  0 mm
04:11 49.3 °F /  9.6 °C 37.6 °F /  3.1 °C 29.81 in /  1009.4 hPa NNW 6.4 mph /  10.3 km/h 13.8 mph /  22.2 km/h 64 % 0.00 in /  0 mm
04:16 49.2 °F /  9.6 °C 37.5 °F /  3.1 °C 29.82 in /  1009.7 hPa WNW 6.8 mph /  10.9 km/h 8.0 mph /  12.9 km/h 64 % 0.00 in /  0 mm
04:22 49.1 °F /  9.5 °C 37.4 °F /  3 °C 29.82 in /  1009.7 hPa WSW 3.8 mph /  6.1 km/h 3.8 mph /  6.1 km/h 64 % 0.00 in /  0 mm
04:27 49.0 °F /  9.4 °C 37.3 °F /  2.9 °C 29.82 in /  1009.7 hPa WNW 5.8 mph /  9.3 km/h 11.5 mph /  18.5 km/h 64 % 0.00 in /  0 mm
04:32 48.9 °F /  9.4 °C 37.3 °F /  2.9 °C 29.82 in /  1009.7 hPa WSW 4.7 mph /  7.6 km/h 11.5 mph /  18.5 km/h 64 % 0.00 in /  0 mm
04:37 48.7 °F /  9.3 °C 37.5 °F /  3.1 °C 29.82 in /  1009.7 hPa West 2.2 mph /  3.5 km/h 9.2 mph /  14.8 km/h 65 % 0.00 in /  0 mm
04:42 48.6 °F /  9.2 °C 37.4 °F /  3 °C 29.82 in /  1009.7 hPa WNW 2.7 mph /  4.3 km/h 9.2 mph /  14.8 km/h 65 % 0.00 in /  0 mm
04:47 48.3 °F /  9.1 °C 37.5 °F /  3.1 °C 29.83 in /  1010 hPa West 3.7 mph /  6 km/h 11.5 mph /  18.5 km/h 66 % 0.00 in /  0 mm
04:52 48.1 °F /  8.9 °C 37.7 °F /  3.2 °C 29.83 in /  1010 hPa West 6.1 mph /  9.8 km/h 8.1 mph /  13 km/h 67 % 0.00 in /  0 mm
04:57 47.9 °F /  8.8 °C 37.8 °F /  3.2 °C 29.84 in /  1010.4 hPa West 5.6 mph /  9 km/h 12.7 mph /  20.4 km/h 68 % 0.00 in /  0 mm
05:02 47.7 °F /  8.7 °C 37.7 °F /  3.2 °C 29.84 in /  1010.4 hPa SW 5.7 mph /  9.2 km/h 10.4 mph /  16.7 km/h 68 % 0.00 in /  0 mm
05:07 47.5 °F /  8.6 °C 37.8 °F /  3.2 °C 29.84 in /  1010.4 hPa WSW 3.5 mph /  5.6 km/h 13.8 mph /  22.2 km/h 69 % 0.00 in /  0 mm
05:12 47.3 °F /  8.5 °C 37.3 °F /  2.9 °C 29.85 in /  1010.7 hPa West 6.1 mph /  9.8 km/h 12.0 mph /  19.3 km/h 68 % 0.00 in /  0 mm
05:17 47.2 °F /  8.4 °C 37.5 °F /  3.1 °C 29.85 in /  1010.7 hPa WSW 4.9 mph /  7.9 km/h 9.0 mph /  14.5 km/h 69 % 0.00 in /  0 mm
05:22 47.0 °F /  8.3 °C 37.0 °F /  2.8 °C 29.85 in /  1010.7 hPa WNW 3.3 mph /  5.3 km/h 10.4 mph /  16.7 km/h 68 % 0.00 in /  0 mm
05:27 46.9 °F /  8.3 °C 37.3 °F /  2.9 °C 29.85 in /  1010.7 hPa WSW 5.4 mph /  8.7 km/h 8.1 mph /  13 km/h 69 % 0.00 in /  0 mm
05:32 46.8 °F /  8.2 °C 37.2 °F /  2.9 °C 29.85 in /  1010.7 hPa NNW 3.9 mph /  6.3 km/h 11.5 mph /  18.5 km/h 69 % 0.00 in /  0 mm
05:37 46.7 °F /  8.2 °C 37.1 °F /  2.8 °C 29.85 in /  1010.7 hPa WNW 5.1 mph /  8.2 km/h 12.7 mph /  20.4 km/h 69 % 0.00 in /  0 mm
05:42 46.5 °F /  8.1 °C 36.9 °F /  2.7 °C 29.85 in /  1010.7 hPa WSW 5.9 mph /  9.5 km/h 11.5 mph /  18.5 km/h 69 % 0.00 in /  0 mm
05:48 46.5 °F /  8.1 °C 36.9 °F /  2.7 °C 29.86 in /  1011.1 hPa WNW 6.2 mph /  10 km/h 9.0 mph /  14.5 km/h 69 % 0.00 in /  0 mm
05:53 46.4 °F /  8 °C 36.8 °F /  2.7 °C 29.86 in /  1011.1 hPa SW 4.5 mph /  7.2 km/h 11.5 mph /  18.5 km/h 69 % 0.00 in /  0 mm
05:58 46.3 °F /  7.9 °C 36.7 °F /  2.6 °C 29.87 in /  1011.4 hPa West 1.9 mph /  3.1 km/h 6.9 mph /  11.1 km/h 69 % 0.00 in /  0 mm
06:03 46.2 °F /  7.9 °C 37.0 °F /  2.8 °C 29.86 in /  1011.1 hPa WNW 3.7 mph /  6 km/h 11.5 mph /  18.5 km/h 70 % 0.00 in /  0 mm
06:07 46.1 °F /  7.8 °C 36.9 °F /  2.7 °C 29.86 in /  1011.1 hPa WNW 2.0 mph /  3.2 km/h 11.5 mph /  18.5 km/h 70 % 0.00 in /  0 mm
06:12 46.0 °F /  7.8 °C 36.8 °F /  2.7 °C 29.86 in /  1011.1 hPa WSW 4.7 mph /  7.6 km/h 11.5 mph /  18.5 km/h 70 % 0.00 in /  0 mm
06:17 46.0 °F /  7.8 °C 36.8 °F /  2.7 °C 29.86 in /  1011.1 hPa West 2.0 mph /  3.2 km/h 10.4 mph /  16.7 km/h 70 % 0.00 in /  0 mm
06:22 45.9 °F /  7.7 °C 36.7 °F /  2.6 °C 29.86 in /  1011.1 hPa WNW 5.7 mph /  9.2 km/h 12.7 mph /  20.4 km/h 70 % 0.00 in /  0 mm
06:27 45.8 °F /  7.7 °C 36.6 °F /  2.6 °C 29.86 in /  1011.1 hPa West 4.8 mph /  7.7 km/h 10.4 mph /  16.7 km/h 70 % 0.00 in /  0 mm
06:32 45.7 °F /  7.6 °C 36.5 °F /  2.5 °C 29.87 in /  1011.4 hPa West 6.4 mph /  10.3 km/h 12.7 mph /  20.4 km/h 70 % 0.00 in /  0 mm
06:37 45.7 °F /  7.6 °C 36.5 °F /  2.5 °C 29.87 in /  1011.4 hPa West 2.7 mph /  4.3 km/h 6.9 mph /  11.1 km/h 70 % 0.00 in /  0 mm
06:42 45.6 °F /  7.6 °C 36.4 °F /  2.4 °C 29.88 in /  1011.7 hPa WSW 4.7 mph /  7.6 km/h 8.1 mph /  13 km/h 70 % 0.00 in /  0 mm
06:47 45.6 °F /  7.6 °C 36.4 °F /  2.4 °C 29.89 in /  1012.1 hPa West 5.4 mph /  8.7 km/h 8.1 mph /  13 km/h 70 % 0.00 in /  0 mm
06:52 45.5 °F /  7.5 °C 36.3 °F /  2.4 °C 29.89 in /  1012.1 hPa WNW 5.5 mph /  8.9 km/h 9.2 mph /  14.8 km/h 70 % 0.00 in /  0 mm
06:57 45.5 °F /  7.5 °C 36.3 °F /  2.4 °C 29.89 in /  1012.1 hPa SSW 7.0 mph /  11.3 km/h 11.5 mph /  18.5 km/h 70 % 0.00 in /  0 mm
07:02 45.5 °F /  7.5 °C 36.3 °F /  2.4 °C 29.90 in /  1012.4 hPa WSW 3.7 mph /  6 km/h 4.6 mph /  7.4 km/h 70 % 0.00 in /  0 mm
07:07 45.5 °F /  7.5 °C 36.3 °F /  2.4 °C 29.90 in /  1012.4 hPa West 3.3 mph /  5.3 km/h 11.5 mph /  18.5 km/h 70 % 0.00 in /  0 mm
07:12 45.5 °F /  7.5 °C 36.3 °F /  2.4 °C 29.90 in /  1012.4 hPa West 5.6 mph /  9 km/h 9.2 mph /  14.8 km/h 70 % 0.00 in /  0 mm
07:17 45.5 °F /  7.5 °C 36.3 °F /  2.4 °C 29.90 in /  1012.4 hPa WSW 7.6 mph /  12.2 km/h 10.4 mph /  16.7 km/h 70 % 0.00 in /  0 mm
07:22 45.5 °F /  7.5 °C 36.3 °F /  2.4 °C 29.90 in /  1012.4 hPa WSW 2.5 mph /  4 km/h 5.8 mph /  9.3 km/h 70 % 0.00 in /  0 mm
07:28 45.5 °F /  7.5 °C 36.6 °F /  2.6 °C 29.90 in /  1012.4 hPa West 4.2 mph /  6.8 km/h 10.4 mph /  16.7 km/h 71 % 0.00 in /  0 mm
07:33 45.4 °F /  7.4 °C 36.2 °F /  2.3 °C 29.90 in /  1012.4 hPa WNW 6.9 mph /  11.1 km/h 11.5 mph /  18.5 km/h 70 % 0.00 in /  0 mm
07:38 45.5 °F /  7.5 °C 36.6 °F /  2.6 °C 29.91 in /  1012.8 hPa West 3.0 mph /  4.8 km/h 15.0 mph /  24.1 km/h 71 % 0.00 in /  0 mm
07:43 45.5 °F /  7.5 °C 36.3 °F /  2.4 °C 29.91 in /  1012.8 hPa WSW 9.3 mph /  15 km/h 13.8 mph /  22.2 km/h 70 % 0.00 in /  0 mm
07:48 45.6 °F /  7.6 °C 36.4 °F /  2.4 °C 29.91 in /  1012.8 hPa West 4.5 mph /  7.2 km/h 8.1 mph /  13 km/h 70 % 0.00 in /  0 mm
07:53 45.7 °F /  7.6 °C 36.8 °F /  2.7 °C 29.91 in /  1012.8 hPa West 5.0 mph /  8 km/h 11.5 mph /  18.5 km/h 71 % 0.00 in /  0 mm
07:58 45.8 °F /  7.7 °C 36.6 °F /  2.6 °C 29.92 in /  1013.1 hPa West 8.0 mph /  12.9 km/h 16.1 mph /  25.9 km/h 70 % 0.00 in /  0 mm
08:03 45.9 °F /  7.7 °C 36.3 °F /  2.4 °C 29.92 in /  1013.1 hPa WSW 5.9 mph /  9.5 km/h 11.5 mph /  18.5 km/h 69 % 0.00 in /  0 mm
08:08 46.0 °F /  7.8 °C 36.4 °F /  2.4 °C 29.92 in /  1013.1 hPa WSW 5.8 mph /  9.3 km/h 10.4 mph /  16.7 km/h 69 % 0.00 in /  0 mm
08:13 46.0 °F /  7.8 °C 36.0 °F /  2.2 °C 29.92 in /  1013.1 hPa WNW 7.6 mph /  12.2 km/h 19.6 mph /  31.5 km/h 68 % 0.00 in /  0 mm
08:18 46.1 °F /  7.8 °C 36.1 °F /  2.3 °C 29.93 in /  1013.4 hPa West 6.3 mph /  10.1 km/h 11.5 mph /  18.5 km/h 68 % 0.00 in /  0 mm
08:22 46.1 °F /  7.8 °C 36.1 °F /  2.3 °C 29.93 in /  1013.4 hPa NW 5.4 mph /  8.7 km/h 16.1 mph /  25.9 km/h 68 % 0.00 in /  0 mm
08:27 46.2 °F /  7.9 °C 36.2 °F /  2.3 °C 29.93 in /  1013.4 hPa West 5.0 mph /  8 km/h 17.3 mph /  27.8 km/h 68 % 0.00 in /  0 mm
08:32 46.2 °F /  7.9 °C 35.8 °F /  2.1 °C 29.93 in /  1013.4 hPa WNW 3.4 mph /  5.5 km/h 9.2 mph /  14.8 km/h 67 % 0.00 in /  0 mm
08:37 46.2 °F /  7.9 °C 35.8 °F /  2.1 °C 29.93 in /  1013.4 hPa WNW 5.2 mph /  8.4 km/h 10.4 mph /  16.7 km/h 67 % 0.00 in /  0 mm
08:42 46.3 °F /  7.9 °C 34.4 °F /  1.3 °C 29.93 in /  1013.4 hPa WNW 3.4 mph /  5.5 km/h 7.0 mph /  11.3 km/h 63 % 0.00 in /  0 mm
08:47 46.4 °F /  8 °C 34.1 °F /  1.2 °C 29.93 in /  1013.4 hPa WSW 11.8 mph /  19 km/h 18.0 mph /  29 km/h 62 % 0.00 in /  0 mm
08:50 46.5 °F /  8.1 °C 34.2 °F /  1.2 °C 29.93 in /  1013.4 hPa NNW 6.7 mph /  10.8 km/h 16.1 mph /  25.9 km/h 62 % 0.00 in /  0 mm
08:55 46.7 °F /  8.2 °C 34.8 °F /  1.6 °C 29.93 in /  1013.4 hPa WNW 4.5 mph /  7.2 km/h 14.0 mph /  22.5 km/h 63 % 0.00 in /  0 mm
09:00 46.9 °F /  8.3 °C 34.6 °F /  1.4 °C 29.94 in /  1013.8 hPa West 6.4 mph /  10.3 km/h 13.0 mph /  20.9 km/h 62 % 0.00 in /  0 mm
09:05 47.3 °F /  8.5 °C 35.3 °F /  1.8 °C 29.94 in /  1013.8 hPa WNW 7.5 mph /  12.1 km/h 15.0 mph /  24.1 km/h 63 % 0.00 in /  0 mm
09:15 47.7 °F /  8.7 °C 34.5 °F /  1.4 °C 29.93 in /  1013.4 hPa WNW 5.7 mph /  9.2 km/h 12.0 mph /  19.3 km/h 60 % 0.00 in /  0 mm
09:20 47.8 °F /  8.8 °C 34.6 °F /  1.4 °C 29.93 in /  1013.4 hPa West 4.9 mph /  7.9 km/h 19.6 mph /  31.5 km/h 60 % 0.00 in /  0 mm
09:25 47.8 °F /  8.8 °C 35.0 °F /  1.7 °C 29.94 in /  1013.8 hPa NNW 5.5 mph /  8.9 km/h 13.8 mph /  22.2 km/h 61 % 0.00 in /  0 mm
09:30 47.9 °F /  8.8 °C 34.3 °F /  1.3 °C 29.95 in /  1014.1 hPa NW 9.3 mph /  15 km/h 12.0 mph /  19.3 km/h 59 % 0.00 in /  0 mm
09:35 47.9 °F /  8.8 °C 32.9 °F /  0.5 °C 29.95 in /  1014.1 hPa WNW 6.3 mph /  10.1 km/h 16.1 mph /  25.9 km/h 56 % 0.00 in /  0 mm
09:40 47.9 °F /  8.8 °C 32.9 °F /  0.5 °C 29.94 in /  1013.8 hPa WNW 10.1 mph /  16.3 km/h 17.3 mph /  27.8 km/h 56 % 0.00 in /  0 mm
09:45 48.0 °F /  8.9 °C 33.0 °F /  0.6 °C 29.94 in /  1013.8 hPa West 10.0 mph /  16.1 km/h 15.0 mph /  24.1 km/h 56 % 0.00 in /  0 mm
09:50 48.0 °F /  8.9 °C 33.5 °F /  0.8 °C 29.95 in /  1014.1 hPa WSW 9.8 mph /  15.8 km/h 14.0 mph /  22.5 km/h 57 % 0.00 in /  0 mm
09:55 48.0 °F /  8.9 °C 33.0 °F /  0.6 °C 29.95 in /  1014.1 hPa West 5.1 mph /  8.2 km/h 16.1 mph /  25.9 km/h 56 % 0.00 in /  0 mm
10:00 48.2 °F /  9 °C 33.2 °F /  0.7 °C 29.96 in /  1014.4 hPa WSW 8.6 mph /  13.8 km/h 13.8 mph /  22.2 km/h 56 % 0.00 in /  0 mm
10:05 48.3 °F /  9.1 °C 33.8 °F /  1 °C 29.96 in /  1014.4 hPa WNW 7.3 mph /  11.7 km/h 12.7 mph /  20.4 km/h 57 % 0.00 in /  0 mm
10:10 48.5 °F /  9.2 °C 33.9 °F /  1.1 °C 29.96 in /  1014.4 hPa NW 8.7 mph /  14 km/h 13.0 mph /  20.9 km/h 57 % 0.00 in /  0 mm
10:15 48.4 °F /  9.1 °C 33.9 °F /  1.1 °C 29.96 in /  1014.4 hPa West 8.6 mph /  13.8 km/h 17.3 mph /  27.8 km/h 57 % 0.00 in /  0 mm
10:20 48.1 °F /  8.9 °C 33.1 °F /  0.6 °C 29.96 in /  1014.4 hPa West 8.1 mph /  13 km/h 13.8 mph /  22.2 km/h 56 % 0.00 in /  0 mm
10:25 47.7 °F /  8.7 °C 33.6 °F /  0.9 °C 29.96 in /  1014.4 hPa NW 7.4 mph /  11.9 km/h 16.1 mph /  25.9 km/h 58 % 0.00 in /  0 mm
10:27 47.6 °F /  8.7 °C 33.1 °F /  0.6 °C 29.96 in /  1014.4 hPa NW 8.4 mph /  13.5 km/h 12.0 mph /  19.3 km/h 57 % 0.00 in /  0 mm
10:32 47.4 °F /  8.6 °C 32.9 °F /  0.5 °C 29.95 in /  1014.1 hPa WNW 11.5 mph /  18.5 km/h 15.0 mph /  24.1 km/h 57 % 0.00 in /  0 mm
10:38 47.3 °F /  8.5 °C 32.4 °F /  0.2 °C 29.96 in /  1014.4 hPa NW 6.8 mph /  10.9 km/h 12.7 mph /  20.4 km/h 56 % 0.00 in /  0 mm
10:43 47.4 °F /  8.6 °C 32.0 °F /  0 °C 29.96 in /  1014.4 hPa WNW 6.4 mph /  10.3 km/h 15.0 mph /  24.1 km/h 55 % 0.00 in /  0 mm
10:48 47.3 °F /  8.5 °C 32.4 °F /  0.2 °C 29.96 in /  1014.4 hPa WNW 7.7 mph /  12.4 km/h 12.0 mph /  19.3 km/h 56 % 0.00 in /  0 mm
10:53 47.1 °F /  8.4 °C 31.7 °F /  -0.2 °C 29.96 in /  1014.4 hPa NW 3.2 mph /  5.1 km/h 11.5 mph /  18.5 km/h 55 % 0.00 in /  0 mm
10:58 46.9 °F /  8.3 °C 31.6 °F /  -0.2 °C 29.95 in /  1014.1 hPa West 7.2 mph /  11.6 km/h 16.1 mph /  25.9 km/h 55 % 0.00 in /  0 mm
11:03 46.7 °F /  8.2 °C 31.4 °F /  -0.3 °C 29.95 in /  1014.1 hPa West 8.6 mph /  13.8 km/h 13.8 mph /  22.2 km/h 55 % 0.00 in /  0 mm
11:08 46.6 °F /  8.1 °C 31.7 °F /  -0.2 °C 29.95 in /  1014.1 hPa SW 6.1 mph /  9.8 km/h 12.7 mph /  20.4 km/h 56 % 0.00 in /  0 mm
11:13 46.5 °F /  8.1 °C 31.6 °F /  -0.2 °C 29.95 in /  1014.1 hPa West 6.7 mph /  10.8 km/h 11.5 mph /  18.5 km/h 56 % 0.00 in /  0 mm
11:18 46.3 °F /  7.9 °C 30.5 °F /  -0.8 °C 29.95 in /  1014.1 hPa WNW 9.1 mph /  14.6 km/h 12.7 mph /  20.4 km/h 54 % 0.00 in /  0 mm
11:23 46.2 °F /  7.9 °C 30.9 °F /  -0.6 °C 29.95 in /  1014.1 hPa WNW 8.8 mph /  14.2 km/h 11.5 mph /  18.5 km/h 55 % 0.00 in /  0 mm
11:28 46.1 °F /  7.8 °C 30.8 °F /  -0.7 °C 29.95 in /  1014.1 hPa SW 7.9 mph /  12.7 km/h 15.0 mph /  24.1 km/h 55 % 0.00 in /  0 mm
11:33 46.0 °F /  7.8 °C 30.3 °F /  -0.9 °C 29.95 in /  1014.1 hPa West 8.9 mph /  14.3 km/h 19.6 mph /  31.5 km/h 54 % 0.00 in /  0 mm
11:38 45.9 °F /  7.7 °C 31.1 °F /  -0.5 °C 29.95 in /  1014.1 hPa West 5.2 mph /  8.4 km/h 8.1 mph /  13 km/h 56 % 0.00 in /  0 mm
11:43 45.9 °F /  7.7 °C 31.1 °F /  -0.5 °C 29.96 in /  1014.4 hPa WSW 6.3 mph /  10.1 km/h 11.5 mph /  18.5 km/h 56 % 0.00 in /  0 mm
11:48 45.9 °F /  7.7 °C 31.1 °F /  -0.5 °C 29.96 in /  1014.4 hPa NNW 7.2 mph /  11.6 km/h 17.3 mph /  27.8 km/h 56 % 0.00 in /  0 mm
11:53 46.0 °F /  7.8 °C 31.2 °F /  -0.4 °C 29.95 in /  1014.1 hPa WNW 4.2 mph /  6.8 km/h 9.2 mph /  14.8 km/h 56 % 0.00 in /  0 mm
11:58 46.0 °F /  7.8 °C 31.2 °F /  -0.4 °C 29.95 in /  1014.1 hPa WNW 5.6 mph /  9 km/h 8.1 mph /  13 km/h 56 % 0.00 in /  0 mm
12:00 46.0 °F /  7.8 °C 30.7 °F /  -0.7 °C 29.95 in /  1014.1 hPa WNW 9.5 mph /  15.3 km/h 10.0 mph /  16.1 km/h 55 % 0.00 in /  0 mm
12:05 46.1 °F /  7.8 °C 30.8 °F /  -0.7 °C 29.95 in /  1014.1 hPa WNW 11.6 mph /  18.7 km/h 16.1 mph /  25.9 km/h 55 % 0.00 in /  0 mm
12:10 46.1 °F /  7.8 °C 30.4 °F /  -0.9 °C 29.95 in /  1014.1 hPa WNW 8.0 mph /  12.9 km/h 17.3 mph /  27.8 km/h 54 % 0.00 in /  0 mm
12:15 46.1 °F /  7.8 °C 31.3 °F /  -0.4 °C 29.95 in /  1014.1 hPa West 7.1 mph /  11.4 km/h 19.6 mph /  31.5 km/h 56 % 0.00 in /  0 mm
12:20 46.3 °F /  7.9 °C 31.0 °F /  -0.6 °C 29.95 in /  1014.1 hPa West 9.3 mph /  15 km/h 14.0 mph /  22.5 km/h 55 % 0.00 in /  0 mm
12:25 46.3 °F /  7.9 °C 31.0 °F /  -0.6 °C 29.95 in /  1014.1 hPa SW 6.8 mph /  10.9 km/h 16.1 mph /  25.9 km/h 55 % 0.00 in /  0 mm
12:35 46.5 °F /  8.1 °C 31.2 °F /  -0.4 °C 29.95 in /  1014.1 hPa WNW 6.6 mph /  10.6 km/h 16.1 mph /  25.9 km/h 55 % 0.00 in /  0 mm
12:40 46.5 °F /  8.1 °C 31.2 °F /  -0.4 °C 29.94 in /  1013.8 hPa NNW 5.7 mph /  9.2 km/h 9.2 mph /  14.8 km/h 55 % 0.00 in /  0 mm
12:45 46.6 °F /  8.1 °C 31.3 °F /  -0.4 °C 29.94 in /  1013.8 hPa WNW 6.5 mph /  10.5 km/h 12.7 mph /  20.4 km/h 55 % 0.00 in /  0 mm
12:50 46.6 °F /  8.1 °C 30.8 °F /  -0.7 °C 29.94 in /  1013.8 hPa NW 5.8 mph /  9.3 km/h 10.4 mph /  16.7 km/h 54 % 0.00 in /  0 mm
12:55 46.7 °F /  8.2 °C 30.5 °F /  -0.8 °C 29.95 in /  1014.1 hPa WSW 6.5 mph /  10.5 km/h 15.0 mph /  24.1 km/h 53 % 0.00 in /  0 mm
13:00 46.8 °F /  8.2 °C 31.0 °F /  -0.6 °C 29.95 in /  1014.1 hPa SW 5.1 mph /  8.2 km/h 10.4 mph /  16.7 km/h 54 % 0.00 in /  0 mm
13:05 46.9 °F /  8.3 °C 31.1 °F /  -0.5 °C 29.95 in /  1014.1 hPa WSW 2.8 mph /  4.5 km/h 7.0 mph /  11.3 km/h 54 % 0.00 in /  0 mm
13:10 47.1 °F /  8.4 °C 31.3 °F /  -0.4 °C 29.95 in /  1014.1 hPa West 7.0 mph /  11.3 km/h 12.7 mph /  20.4 km/h 54 % 0.00 in /  0 mm
13:15 47.2 °F /  8.4 °C 30.9 °F /  -0.6 °C 29.94 in /  1013.8 hPa WSW 8.3 mph /  13.4 km/h 17.3 mph /  27.8 km/h 53 % 0.00 in /  0 mm
13:20 47.2 °F /  8.4 °C 31.4 °F /  -0.3 °C 29.95 in /  1014.1 hPa WNW 3.3 mph /  5.3 km/h 9.2 mph /  14.8 km/h 54 % 0.00 in /  0 mm
13:25 47.3 °F /  8.5 °C 31.0 °F /  -0.6 °C 29.95 in /  1014.1 hPa WNW 6.1 mph /  9.8 km/h 11.0 mph /  17.7 km/h 53 % 0.00 in /  0 mm
13:30 47.4 °F /  8.6 °C 30.6 °F /  -0.8 °C 29.95 in /  1014.1 hPa WNW 6.9 mph /  11.1 km/h 17.3 mph /  27.8 km/h 52 % 0.00 in /  0 mm
13:35 47.5 °F /  8.6 °C 30.7 °F /  -0.7 °C 29.95 in /  1014.1 hPa NW 4.4 mph /  7.1 km/h 11.5 mph /  18.5 km/h 52 % 0.00 in /  0 mm
13:40 47.6 °F /  8.7 °C 31.3 °F /  -0.4 °C 29.94 in /  1013.8 hPa WNW 8.1 mph /  13 km/h 14.0 mph /  22.5 km/h 53 % 0.00 in /  0 mm
13:45 47.6 °F /  8.7 °C 30.8 °F /  -0.7 °C 29.94 in /  1013.8 hPa NW 5.7 mph /  9.2 km/h 11.5 mph /  18.5 km/h 52 % 0.00 in /  0 mm
13:50 47.5 °F /  8.6 °C 30.3 °F /  -0.9 °C 29.94 in /  1013.8 hPa WSW 7.6 mph /  12.2 km/h 10.4 mph /  16.7 km/h 51 % 0.00 in /  0 mm
13:55 47.3 °F /  8.5 °C 30.5 °F /  -0.8 °C 29.94 in /  1013.8 hPa WNW 7.7 mph /  12.4 km/h 11.5 mph /  18.5 km/h 52 % 0.00 in /  0 mm
14:00 47.0 °F /  8.3 °C 30.3 °F /  -0.9 °C 29.94 in /  1013.8 hPa WNW 7.5 mph /  12.1 km/h 13.8 mph /  22.2 km/h 52 % 0.00 in /  0 mm
14:05 46.7 °F /  8.2 °C 30.5 °F /  -0.8 °C 29.93 in /  1013.4 hPa West 5.1 mph /  8.2 km/h 13.8 mph /  22.2 km/h 53 % 0.00 in /  0 mm
14:10 46.5 °F /  8.1 °C 30.7 °F /  -0.7 °C 29.94 in /  1013.8 hPa West 5.5 mph /  8.9 km/h 12.7 mph /  20.4 km/h 54 % 0.00 in /  0 mm
14:15 46.3 °F /  7.9 °C 31.0 °F /  -0.6 °C 29.94 in /  1013.8 hPa WNW 4.0 mph /  6.4 km/h 12.0 mph /  19.3 km/h 55 % 0.00 in /  0 mm
14:21 46.2 °F /  7.9 °C 31.4 °F /  -0.3 °C 29.94 in /  1013.8 hPa West 3.7 mph /  6 km/h 10.4 mph /  16.7 km/h 56 % 0.00 in /  0 mm
14:25 46.2 °F /  7.9 °C 31.4 °F /  -0.3 °C 29.94 in /  1013.8 hPa WNW 6.5 mph /  10.5 km/h 15.0 mph /  24.1 km/h 56 % 0.00 in /  0 mm
14:30 46.1 °F /  7.8 °C 30.4 °F /  -0.9 °C 29.94 in /  1013.8 hPa WNW 7.9 mph /  12.7 km/h 16.1 mph /  25.9 km/h 54 % 0.00 in /  0 mm
14:35 46.0 °F /  7.8 °C 31.2 °F /  -0.4 °C 29.94 in /  1013.8 hPa WNW 4.8 mph /  7.7 km/h 11.5 mph /  18.5 km/h 56 % 0.00 in /  0 mm
14:41 46.0 °F /  7.8 °C 31.2 °F /  -0.4 °C 29.95 in /  1014.1 hPa NW 8.0 mph /  12.9 km/h 17.0 mph /  27.4 km/h 56 % 0.00 in /  0 mm
14:46 46.0 °F /  7.8 °C 31.2 °F /  -0.4 °C 29.94 in /  1013.8 hPa WNW 5.0 mph /  8 km/h 16.0 mph /  25.7 km/h 56 % 0.00 in /  0 mm
14:51 45.9 °F /  7.7 °C 31.5 °F /  -0.3 °C 29.94 in /  1013.8 hPa WNW 6.0 mph /  9.7 km/h 16.0 mph /  25.7 km/h 57 % 0.00 in /  0 mm
14:56 45.8 °F /  7.7 °C 31.0 °F /  -0.6 °C 29.94 in /  1013.8 hPa WNW 3.0 mph /  4.8 km/h 17.0 mph /  27.4 km/h 56 % 0.00 in /  0 mm
15:01 45.7 °F /  7.6 °C 31.3 °F /  -0.4 °C 29.94 in /  1013.8 hPa WNW 7.0 mph /  11.3 km/h 11.5 mph /  18.5 km/h 57 % 0.00 in /  0 mm
15:06 45.6 °F /  7.6 °C 31.2 °F /  -0.4 °C 29.94 in /  1013.8 hPa West 6.6 mph /  10.6 km/h 8.0 mph /  12.9 km/h 57 % 0.00 in /  0 mm
15:11 45.5 °F /  7.5 °C 30.3 °F /  -0.9 °C 29.95 in /  1014.1 hPa NNW 7.5 mph /  12.1 km/h 13.8 mph /  22.2 km/h 55 % 0.00 in /  0 mm
15:16 45.4 °F /  7.4 °C 30.6 °F /  -0.8 °C 29.95 in /  1014.1 hPa WNW 4.7 mph /  7.6 km/h 11.5 mph /  18.5 km/h 56 % 0.00 in /  0 mm
15:21 45.2 °F /  7.3 °C 30.0 °F /  -1.1 °C 29.95 in /  1014.1 hPa WNW 7.1 mph /  11.4 km/h 12.7 mph /  20.4 km/h 55 % 0.00 in /  0 mm
15:26 45.1 °F /  7.3 °C 29.4 °F /  -1.4 °C 29.95 in /  1014.1 hPa WNW 5.6 mph /  9 km/h 15.0 mph /  24.1 km/h 54 % 0.00 in /  0 mm
15:31 45.0 °F /  7.2 °C 29.3 °F /  -1.5 °C 29.96 in /  1014.4 hPa NW 5.2 mph /  8.4 km/h 11.5 mph /  18.5 km/h 54 % 0.00 in /  0 mm
15:36 44.9 °F /  7.2 °C 29.7 °F /  -1.3 °C 29.95 in /  1014.1 hPa West 6.0 mph /  9.7 km/h 14.0 mph /  22.5 km/h 55 % 0.00 in /  0 mm
15:41 44.8 °F /  7.1 °C 29.6 °F /  -1.3 °C 29.94 in /  1013.8 hPa NW 5.7 mph /  9.2 km/h 12.0 mph /  19.3 km/h 55 % 0.00 in /  0 mm
15:46 44.7 °F /  7.1 °C 30.0 °F /  -1.1 °C 29.95 in /  1014.1 hPa NW 2.9 mph /  4.7 km/h 11.5 mph /  18.5 km/h 56 % 0.00 in /  0 mm
15:51 44.6 °F /  7 °C 29.9 °F /  -1.2 °C 29.96 in /  1014.4 hPa WSW 7.1 mph /  11.4 km/h 15.0 mph /  24.1 km/h 56 % 0.00 in /  0 mm
15:56 44.6 °F /  7 °C 29.9 °F /  -1.2 °C 29.96 in /  1014.4 hPa NW 6.3 mph /  10.1 km/h 16.1 mph /  25.9 km/h 56 % 0.00 in /  0 mm
16:01 44.5 °F /  6.9 °C 30.2 °F /  -1 °C 29.96 in /  1014.4 hPa WNW 6.9 mph /  11.1 km/h 10.4 mph /  16.7 km/h 57 % 0.00 in /  0 mm
16:06 44.5 °F /  6.9 °C 30.2 °F /  -1 °C 29.96 in /  1014.4 hPa SW 4.6 mph /  7.4 km/h 9.2 mph /  14.8 km/h 57 % 0.00 in /  0 mm
16:12 44.4 °F /  6.9 °C 30.1 °F /  -1.1 °C 29.96 in /  1014.4 hPa WSW 6.6 mph /  10.6 km/h 10.4 mph /  16.7 km/h 57 % 0.00 in /  0 mm
16:17 44.3 °F /  6.8 °C 30.0 °F /  -1.1 °C 29.96 in /  1014.4 hPa WNW 7.6 mph /  12.2 km/h 11.5 mph /  18.5 km/h 57 % 0.00 in /  0 mm
16:22 44.2 °F /  6.8 °C 30.3 °F /  -0.9 °C 29.96 in /  1014.4 hPa West 9.4 mph /  15.1 km/h 15.0 mph /  24.1 km/h 58 % 0.00 in /  0 mm
16:27 44.1 °F /  6.7 °C 29.8 °F /  -1.2 °C 29.96 in /  1014.4 hPa WNW 5.2 mph /  8.4 km/h 12.0 mph /  19.3 km/h 57 % 0.00 in /  0 mm
16:32 44.0 °F /  6.7 °C 29.7 °F /  -1.3 °C 29.96 in /  1014.4 hPa West 7.3 mph /  11.7 km/h 15.0 mph /  24.1 km/h 57 % 0.00 in /  0 mm
16:37 44.0 °F /  6.7 °C 29.7 °F /  -1.3 °C 29.96 in /  1014.4 hPa West 7.3 mph /  11.7 km/h 18.4 mph /  29.6 km/h 57 % 0.00 in /  0 mm
16:42 43.8 °F /  6.6 °C 29.5 °F /  -1.4 °C 29.96 in /  1014.4 hPa WNW 9.1 mph /  14.6 km/h 14.0 mph /  22.5 km/h 57 % 0.00 in /  0 mm
16:47 43.8 °F /  6.6 °C 29.5 °F /  -1.4 °C 29.97 in /  1014.8 hPa NW 5.0 mph /  8 km/h 11.5 mph /  18.5 km/h 57 % 0.00 in /  0 mm
16:52 43.8 °F /  6.6 °C 30.0 °F /  -1.1 °C 29.98 in /  1015.1 hPa NW 5.8 mph /  9.3 km/h 12.0 mph /  19.3 km/h 58 % 0.00 in /  0 mm
16:57 43.6 °F /  6.4 °C 29.8 °F /  -1.2 °C 29.98 in /  1015.1 hPa West 5.1 mph /  8.2 km/h 9.2 mph /  14.8 km/h 58 % 0.00 in /  0 mm
17:02 43.5 °F /  6.4 °C 29.7 °F /  -1.3 °C 29.98 in /  1015.1 hPa NW 6.6 mph /  10.6 km/h 18.4 mph /  29.6 km/h 58 % 0.00 in /  0 mm
17:07 43.4 °F /  6.3 °C 29.6 °F /  -1.3 °C 29.98 in /  1015.1 hPa WNW 4.9 mph /  7.9 km/h 7.0 mph /  11.3 km/h 58 % 0.00 in /  0 mm
17:12 43.3 °F /  6.3 °C 29.9 °F /  -1.2 °C 29.97 in /  1014.8 hPa WNW 6.2 mph /  10 km/h 10.0 mph /  16.1 km/h 59 % 0.00 in /  0 mm
17:17 43.2 °F /  6.2 °C 30.2 °F /  -1 °C 29.97 in /  1014.8 hPa WNW 3.1 mph /  5 km/h 12.7 mph /  20.4 km/h 60 % 0.00 in /  0 mm
17:23 43.1 °F /  6.2 °C 30.1 °F /  -1.1 °C 29.98 in /  1015.1 hPa NW 3.7 mph /  6 km/h 9.2 mph /  14.8 km/h 60 % 0.00 in /  0 mm
17:28 43.0 °F /  6.1 °C 30.5 °F /  -0.8 °C 29.98 in /  1015.1 hPa WNW 3.8 mph /  6.1 km/h 11.5 mph /  18.5 km/h 61 % 0.00 in /  0 mm
17:33 42.9 °F /  6.1 °C 30.0 °F /  -1.1 °C 29.98 in /  1015.1 hPa SSW 8.0 mph /  12.9 km/h 10.4 mph /  16.7 km/h 60 % 0.00 in /  0 mm
17:38 42.8 °F /  6 °C 29.0 °F /  -1.7 °C 29.98 in /  1015.1 hPa West 1.4 mph /  2.3 km/h 9.2 mph /  14.8 km/h 58 % 0.00 in /  0 mm
17:43 42.8 °F /  6 °C 29.0 °F /  -1.7 °C 29.98 in /  1015.1 hPa WNW 5.0 mph /  8 km/h 10.0 mph /  16.1 km/h 58 % 0.00 in /  0 mm
17:48 42.7 °F /  5.9 °C 29.4 °F /  -1.4 °C 29.98 in /  1015.1 hPa NW 3.3 mph /  5.3 km/h 7.0 mph /  11.3 km/h 59 % 0.00 in /  0 mm
17:53 42.6 °F /  5.9 °C 29.7 °F /  -1.3 °C 29.98 in /  1015.1 hPa WSW 4.4 mph /  7.1 km/h 9.2 mph /  14.8 km/h 60 % 0.00 in /  0 mm
17:58 42.5 °F /  5.8 °C 29.2 °F /  -1.6 °C 29.98 in /  1015.1 hPa NW 6.3 mph /  10.1 km/h 10.4 mph /  16.7 km/h 59 % 0.00 in /  0 mm
18:03 42.4 °F /  5.8 °C 29.5 °F /  -1.4 °C 29.98 in /  1015.1 hPa WNW 4.1 mph /  6.6 km/h 8.0 mph /  12.9 km/h 60 % 0.00 in /  0 mm
18:08 42.3 °F /  5.7 °C 29.0 °F /  -1.7 °C 29.98 in /  1015.1 hPa WNW 5.6 mph /  9 km/h 11.5 mph /  18.5 km/h 59 % 0.00 in /  0 mm
18:13 42.2 °F /  5.7 °C 28.9 °F /  -1.7 °C 29.98 in /  1015.1 hPa NW 1.8 mph /  2.9 km/h 12.7 mph /  20.4 km/h 59 % 0.00 in /  0 mm
18:19 42.1 °F /  5.6 °C 28.8 °F /  -1.8 °C 29.99 in /  1015.5 hPa WNW 3.6 mph /  5.8 km/h 5.8 mph /  9.3 km/h 59 % 0.00 in /  0 mm
18:24 42.0 °F /  5.6 °C 28.7 °F /  -1.8 °C 29.99 in /  1015.5 hPa WSW 2.3 mph /  3.7 km/h 9.2 mph /  14.8 km/h 59 % 0.00 in /  0 mm
18:29 41.9 °F /  5.5 °C 29.0 °F /  -1.7 °C 29.99 in /  1015.5 hPa West 2.5 mph /  4 km/h 6.9 mph /  11.1 km/h 60 % 0.00 in /  0 mm
18:34 41.9 °F /  5.5 °C 29.0 °F /  -1.7 °C 29.99 in /  1015.5 hPa WNW 3.8 mph /  6.1 km/h 8.1 mph /  13 km/h 60 % 0.00 in /  0 mm
18:39 41.9 °F /  5.5 °C 29.0 °F /  -1.7 °C 29.99 in /  1015.5 hPa West 3.8 mph /  6.1 km/h 6.9 mph /  11.1 km/h 60 % 0.00 in /  0 mm
18:44 41.8 °F /  5.4 °C 29.3 °F /  -1.5 °C 29.99 in /  1015.5 hPa West 2.5 mph /  4 km/h 5.8 mph /  9.3 km/h 61 % 0.00 in /  0 mm
18:49 41.8 °F /  5.4 °C 29.3 °F /  -1.5 °C 29.99 in /  1015.5 hPa WSW 4.9 mph /  7.9 km/h 6.9 mph /  11.1 km/h 61 % 0.00 in /  0 mm
18:54 41.7 °F /  5.4 °C 29.6 °F /  -1.3 °C 29.99 in /  1015.5 hPa WNW 1.2 mph /  1.9 km/h 7.0 mph /  11.3 km/h 62 % 0.00 in /  0 mm
18:59 41.8 °F /  5.4 °C 29.7 °F /  -1.3 °C 29.99 in /  1015.5 hPa WSW 0.8 mph /  1.3 km/h 8.1 mph /  13 km/h 62 % 0.00 in /  0 mm
19:04 41.7 °F /  5.4 °C 29.2 °F /  -1.6 °C 30.00 in /  1015.8 hPa WSW 4.8 mph /  7.7 km/h 6.9 mph /  11.1 km/h 61 % 0.00 in /  0 mm
19:09 41.6 °F /  5.3 °C 29.1 °F /  -1.6 °C 30.00 in /  1015.8 hPa West 4.9 mph /  7.9 km/h 4.9 mph /  7.9 km/h 61 % 0.00 in /  0 mm
19:15 41.6 °F /  5.3 °C 29.1 °F /  -1.6 °C 30.00 in /  1015.8 hPa WSW 5.5 mph /  8.9 km/h 11.5 mph /  18.5 km/h 61 % 0.00 in /  0 mm
19:20 41.5 °F /  5.3 °C 29.0 °F /  -1.7 °C 30.00 in /  1015.8 hPa SW 3.4 mph /  5.5 km/h 4.6 mph /  7.4 km/h 61 % 0.00 in /  0 mm
19:25 41.5 °F /  5.3 °C 29.4 °F /  -1.4 °C 30.00 in /  1015.8 hPa WNW 4.2 mph /  6.8 km/h 6.9 mph /  11.1 km/h 62 % 0.00 in /  0 mm
19:30 41.4 °F /  5.2 °C 29.3 °F /  -1.5 °C 30.00 in /  1015.8 hPa WSW 4.0 mph /  6.4 km/h 9.0 mph /  14.5 km/h 62 % 0.00 in /  0 mm
19:35 41.3 °F /  5.2 °C 29.3 °F /  -1.5 °C 30.00 in /  1015.8 hPa West 5.5 mph /  8.9 km/h 8.1 mph /  13 km/h 62 % 0.00 in /  0 mm
19:40 41.2 °F /  5.1 °C 29.5 °F /  -1.4 °C 30.00 in /  1015.8 hPa WSW 3.3 mph /  5.3 km/h 8.1 mph /  13 km/h 63 % 0.00 in /  0 mm
19:45 41.2 °F /  5.1 °C 29.5 °F /  -1.4 °C 30.00 in /  1015.8 hPa West 1.2 mph /  1.9 km/h 5.8 mph /  9.3 km/h 63 % 0.00 in /  0 mm
19:50 41.1 °F /  5.1 °C 29.5 °F /  -1.4 °C 30.00 in /  1015.8 hPa West 2.4 mph /  3.9 km/h 4.6 mph /  7.4 km/h 63 % 0.00 in /  0 mm
19:55 41.1 °F /  5.1 °C 29.5 °F /  -1.4 °C 30.01 in /  1016.1 hPa WSW 2.4 mph /  3.9 km/h 5.8 mph /  9.3 km/h 63 % 0.00 in /  0 mm
20:00 41.0 °F /  5 °C 29.0 °F /  -1.7 °C 30.00 in /  1015.8 hPa West 3.6 mph /  5.8 km/h 6.9 mph /  11.1 km/h 62 % 0.00 in /  0 mm
20:06 40.9 °F /  4.9 °C 29.3 °F /  -1.5 °C 30.00 in /  1015.8 hPa WNW 2.1 mph /  3.4 km/h 3.5 mph /  5.6 km/h 63 % 0.00 in /  0 mm
20:11 40.9 °F /  4.9 °C 29.3 °F /  -1.5 °C 30.00 in /  1015.8 hPa West 2.0 mph /  3.2 km/h 10.0 mph /  16.1 km/h 63 % 0.00 in /  0 mm
20:16 40.8 °F /  4.9 °C 28.8 °F /  -1.8 °C 30.00 in /  1015.8 hPa West 3.0 mph /  4.8 km/h 10.0 mph /  16.1 km/h 62 % 0.00 in /  0 mm
20:21 40.8 °F /  4.9 °C 28.8 °F /  -1.8 °C 30.00 in /  1015.8 hPa West 2.0 mph /  3.2 km/h 7.0 mph /  11.3 km/h 62 % 0.00 in /  0 mm
20:26 40.8 °F /  4.9 °C 29.2 °F /  -1.6 °C 30.00 in /  1015.8 hPa West 5.0 mph /  8 km/h 8.0 mph /  12.9 km/h 63 % 0.00 in /  0 mm
20:31 40.8 °F /  4.9 °C 29.2 °F /  -1.6 °C 30.01 in /  1016.1 hPa West 3.0 mph /  4.8 km/h 9.0 mph /  14.5 km/h 63 % 0.00 in /  0 mm
20:36 40.7 °F /  4.8 °C 29.1 °F /  -1.6 °C 30.01 in /  1016.1 hPa West 6.0 mph /  9.7 km/h 8.0 mph /  12.9 km/h 63 % 0.00 in /  0 mm
20:41 40.7 °F /  4.8 °C 29.1 °F /  -1.6 °C 30.01 in /  1016.1 hPa West 5.0 mph /  8 km/h 8.0 mph /  12.9 km/h 63 % 0.00 in /  0 mm
20:46 40.6 °F /  4.8 °C 29.0 °F /  -1.7 °C 30.00 in /  1015.8 hPa West 3.0 mph /  4.8 km/h 6.0 mph /  9.7 km/h 63 % 0.00 in /  0 mm
20:51 40.6 °F /  4.8 °C 29.0 °F /  -1.7 °C 30.00 in /  1015.8 hPa West 5.0 mph /  8 km/h 8.0 mph /  12.9 km/h 63 % 0.00 in /  0 mm
20:56 40.6 °F /  4.8 °C 29.0 °F /  -1.7 °C 30.00 in /  1015.8 hPa WNW 1.4 mph /  2.3 km/h 5.8 mph /  9.3 km/h 63 % 0.00 in /  0 mm
21:01 40.5 °F /  4.7 °C 28.9 °F /  -1.7 °C 30.00 in /  1015.8 hPa West 4.7 mph /  7.6 km/h 7.0 mph /  11.3 km/h 63 % 0.00 in /  0 mm
21:06 40.5 °F /  4.7 °C 28.9 °F /  -1.7 °C 30.00 in /  1015.8 hPa West 5.2 mph /  8.4 km/h 8.1 mph /  13 km/h 63 % 0.00 in /  0 mm
21:11 40.4 °F /  4.7 °C 28.8 °F /  -1.8 °C 30.00 in /  1015.8 hPa West 3.8 mph /  6.1 km/h 8.1 mph /  13 km/h 63 % 0.00 in /  0 mm
21:16 40.4 °F /  4.7 °C 28.8 °F /  -1.8 °C 30.00 in /  1015.8 hPa WSW 2.6 mph /  4.2 km/h 5.8 mph /  9.3 km/h 63 % 0.00 in /  0 mm
21:21 40.3 °F /  4.6 °C 28.7 °F /  -1.8 °C 30.00 in /  1015.8 hPa WNW 3.5 mph /  5.6 km/h 5.8 mph /  9.3 km/h 63 % 0.00 in /  0 mm
21:26 40.3 °F /  4.6 °C 28.7 °F /  -1.8 °C 29.99 in /  1015.5 hPa West 4.8 mph /  7.7 km/h 10.4 mph /  16.7 km/h 63 % 0.00 in /  0 mm
21:31 40.2 °F /  4.6 °C 28.6 °F /  -1.9 °C 29.99 in /  1015.5 hPa WSW 1.4 mph /  2.3 km/h 3.5 mph /  5.6 km/h 63 % 0.00 in /  0 mm
21:36 40.2 °F /  4.6 °C 29.0 °F /  -1.7 °C 29.99 in /  1015.5 hPa West 0.4 mph /  0.6 km/h 3.5 mph /  5.6 km/h 64 % 0.00 in /  0 mm
21:41 40.1 °F /  4.5 °C 28.9 °F /  -1.7 °C 29.99 in /  1015.5 hPa WNW 3.1 mph /  5 km/h 5.8 mph /  9.3 km/h 64 % 0.00 in /  0 mm
21:46 40.0 °F /  4.4 °C 28.8 °F /  -1.8 °C 29.98 in /  1015.1 hPa WSW 5.8 mph /  9.3 km/h 11.5 mph /  18.5 km/h 64 % 0.00 in /  0 mm
21:51 40.0 °F /  4.4 °C 28.8 °F /  -1.8 °C 29.98 in /  1015.1 hPa WNW 4.1 mph /  6.6 km/h 8.1 mph /  13 km/h 64 % 0.00 in /  0 mm
21:56 40.0 °F /  4.4 °C 28.8 °F /  -1.8 °C 29.99 in /  1015.5 hPa West 1.1 mph /  1.8 km/h 2.3 mph /  3.7 km/h 64 % 0.00 in /  0 mm
22:01 39.9 °F /  4.4 °C 29.1 °F /  -1.6 °C 29.99 in /  1015.5 hPa Calm     65 % 0.00 in /  0 mm
22:06 39.8 °F /  4.3 °C 29.0 °F /  -1.7 °C 29.99 in /  1015.5 hPa West 1.4 mph /  2.3 km/h 4.0 mph /  6.4 km/h 65 % 0.00 in /  0 mm
22:11 39.7 °F /  4.3 °C 28.9 °F /  -1.7 °C 29.99 in /  1015.5 hPa WSW 0.1 mph /  0.2 km/h 2.3 mph /  3.7 km/h 65 % 0.00 in /  0 mm
22:17 39.6 °F /  4.2 °C 28.8 °F /  -1.8 °C 29.99 in /  1015.5 hPa WSW 1.2 mph /  1.9 km/h 2.0 mph /  3.2 km/h 65 % 0.00 in /  0 mm
22:22 39.4 °F /  4.1 °C 28.6 °F /  -1.9 °C 29.99 in /  1015.5 hPa WSW 0.1 mph /  0.2 km/h 2.3 mph /  3.7 km/h 65 % 0.00 in /  0 mm
22:27 39.3 °F /  4.1 °C 28.9 °F /  -1.7 °C 29.99 in /  1015.5 hPa WSW 1.0 mph /  1.6 km/h 3.5 mph /  5.6 km/h 66 % 0.00 in /  0 mm
22:32 39.1 °F /  3.9 °C 28.7 °F /  -1.8 °C 29.98 in /  1015.1 hPa Calm   2.3 mph /  3.7 km/h 66 % 0.00 in /  0 mm
22:37 38.9 °F /  3.8 °C 28.9 °F /  -1.7 °C 29.98 in /  1015.1 hPa SSW 0.2 mph /  0.3 km/h 1.0 mph /  1.6 km/h 67 % 0.00 in /  0 mm
22:42 38.7 °F /  3.7 °C 28.7 °F /  -1.8 °C 29.98 in /  1015.1 hPa WSW 0.7 mph /  1.1 km/h 2.3 mph /  3.7 km/h 67 % 0.00 in /  0 mm
22:48 38.6 °F /  3.7 °C 28.9 °F /  -1.7 °C 29.98 in /  1015.1 hPa Calm   2.3 mph /  3.7 km/h 68 % 0.00 in /  0 mm
22:53 38.4 °F /  3.6 °C 28.8 °F /  -1.8 °C 29.98 in /  1015.1 hPa SW 2.6 mph /  4.2 km/h 4.0 mph /  6.4 km/h 68 % 0.00 in /  0 mm
22:58 38.3 °F /  3.5 °C 28.3 °F /  -2.1 °C 29.98 in /  1015.1 hPa WSW 2.6 mph /  4.2 km/h 3.5 mph /  5.6 km/h 67 % 0.00 in /  0 mm
23:03 38.3 °F /  3.5 °C 28.7 °F /  -1.8 °C 29.98 in /  1015.1 hPa SW 1.5 mph /  2.4 km/h 5.8 mph /  9.3 km/h 68 % 0.00 in /  0 mm
23:08 38.3 °F /  3.5 °C 28.7 °F /  -1.8 °C 29.99 in /  1015.5 hPa SSW 0.7 mph /  1.1 km/h 3.5 mph /  5.6 km/h 68 % 0.00 in /  0 mm
23:13 38.3 °F /  3.5 °C 28.7 °F /  -1.8 °C 29.99 in /  1015.5 hPa West 4.3 mph /  6.9 km/h 5.8 mph /  9.3 km/h 68 % 0.00 in /  0 mm
23:17 38.3 °F /  3.5 °C 29.0 °F /  -1.7 °C 29.99 in /  1015.5 hPa West 1.0 mph /  1.6 km/h 3.0 mph /  4.8 km/h 69 % 0.00 in /  0 mm
23:22 38.4 °F /  3.6 °C 28.8 °F /  -1.8 °C 29.99 in /  1015.5 hPa WSW 2.9 mph /  4.7 km/h 5.0 mph /  8 km/h 68 % 0.00 in /  0 mm
23:27 38.4 °F /  3.6 °C 28.8 °F /  -1.8 °C 29.99 in /  1015.5 hPa SW 0.6 mph /  1 km/h 3.5 mph /  5.6 km/h 68 % 0.00 in /  0 mm
23:33 38.5 °F /  3.6 °C 28.9 °F /  -1.7 °C 30.00 in /  1015.8 hPa SSW 1.2 mph /  1.9 km/h 5.0 mph /  8 km/h 68 % 0.00 in /  0 mm
23:38 38.5 °F /  3.6 °C 28.9 °F /  -1.7 °C 29.99 in /  1015.5 hPa WSW 0.2 mph /  0.3 km/h 2.3 mph /  3.7 km/h 68 % 0.00 in /  0 mm
23:43 38.6 °F /  3.7 °C 28.9 °F /  -1.7 °C 29.99 in /  1015.5 hPa West 1.1 mph /  1.8 km/h 3.5 mph /  5.6 km/h 68 % 0.00 in /  0 mm
23:48 38.6 °F /  3.7 °C 28.9 °F /  -1.7 °C 29.98 in /  1015.1 hPa SSW 2.1 mph /  3.4 km/h 3.5 mph /  5.6 km/h 68 % 0.00 in /  0 mm
23:53 38.6 °F /  3.7 °C 28.9 °F /  -1.7 °C 29.98 in /  1015.1 hPa WSW 2.3 mph /  3.7 km/h 3.5 mph /  5.6 km/h 68 % 0.00 in /  0 mm
23:58 38.7 °F /  3.7 °C 29.0 °F /  -1.7 °C 29.98 in /  1015.1 hPa West 2.6 mph /  4.2 km/h 4.6 mph /  7.4 km/h 68 % 0.00 in /  0 mm
Crab Meadow Weather
Compliments of Weather Underground - 3 mb

Script developed by  Jim McMurry - jmcmurry@mwt.net Adapted for the template by  Wim van der Kuil - Leuven-Template.eu

Weather Terms: Flood Stage - The level or stage at which a stream overflows its banks or the stage at which the overflow of a stream begins to cause damage.